Find WHDW 03-07

NORAD ID: 63693 Int'l Des: 2025-086 Owner: ZXW Country: CN Constellation: xingwang operational
LEOCIRCULARPOLARONEWEB_TYPE

Current View

Loading 3D Globe...

About WHDW 03-07

Description loading...

Upcoming Passes

Passes for default location (London). Set your location on the main map for personalized predictions.

Altitude History

Loading altitude history...

Two-Line Element Set

1 63693U 25086G 26150.59566650 .00000026 00000-0 27170-4 0 9993
2 63693 86.5064 319.1291 0001167 80.8335 279.2931 13.24407172 52535
Epoch: May 30, 2026 • Age: 9 hours

Current Status

Altitude 1179.8 km
Velocity 7.27 km/s
Sub-Earth Point 73.48°N, 86.32°E
Launch Date Apr 28, 2025
Age 1 years
Type other

Technical Details

Classification Payload
Mass 800.00 kg
Dry Mass 800.00 kg
Total Mass 800.00 kg
Length 3.00 m
Diameter 1.00 m
Span 10.00 m
Shape Box + 2 Pan
Manufacturer CAST
Bus Type Xingwang CL
Phase Status In Orbit
Owner/State ZXW/CN

Most Searched